Starlink 11142

operational
NORAD ID: 59957 Int'l Des: 2024-107 Owner: SPXS Country: US Constellation: starlink
LEOCIRCULAR

Starlink 11142について

説明を読み込み中...

リアルタイム位置

3D地球を読み込み中...

次回通過

高度履歴

Altitude vs Time

uPlot chart will show altitude changes over time

軌道要素

1 59957U 24107N 25308.53772065 -.00000531 00000-0 47583-6 0 9995
2 59957 53.1559 147.9069 0001428 98.2606 261.8573 15.69707184 82502
Epoch: Nov 4, 2025 • Age: 12 hours

現在のステータス

高度 361.9 km
速度 7.70 km/s
衛星直下点 35.59°N, 113.14°E
打ち上げ日 Jun 5, 2024
運用期間 1.4 years
タイプ internet

技術仕様

分類 Payload
質量 960.00 kg
乾燥質量 910.00 kg
総質量 960.00 kg
長さ 0.30 m
直径 4.10 m
スパン 29.00 m
形状 Box + pan
製造者 SPXS
バスタイプ Starlink V2MD
フェーズステータス In Orbit
所有者/国 SPXS/US

大規模コンステレーション

Loading constellations...